COSMOS 2294 (GLONASS)

Satellite information

Favourite Embed

Satellite Type and Status

PAYLOADIN ORBIT

Key statistics

Satellite COSMOS 2294 (GLONASS) at a glance.

Uptime

11188

Days in orbit

Revolutions

≈ 2.1

Per day

Orbit

MEO

Medium Earth Orbit

Inclination

64.6

Latest

Satellite identification and parameters

Extended collection of information and parameters for COSMOS 2294 (GLONASS).

Object identification

Identified? True

Debris? False

Object name: COSMOS 2294 (GLONASS)

International designator: 1994-076C

Object number (NORAD): 23398

Object ID (CCSDS): 23398

Country: COMMONWEALTH OF INDEPENDENT STATES (CIS)

Current information (Y/N): Y

RCS size: LARGE

Orbital parameters

Period: 675.733 minutes

Inclination: 64.6263 deg

SMA: 25508.043 km

Apoapsis: 19144.055 km

Periapsis: 19115.761 km

RAAN: 80.6641 deg

Eccentricy: 0.0005546

Argument of periapsis: 41.9445 deg

Mean anomaly: 140.6947 deg

Mean motion: 2.13101767 rev/day

Mean motion (dot): -0.00000033 rev/day2

B* drag term: 0.0 1/REarth

Two-line elements (TLE)

Creation date: July 8, 2025, 2:27 a.m.

Reference frame: TEME

Reference center: EARTH

Epoch: July 7, 2025, 8:56 p.m. UTC

TLE line 0: 0 COSMOS 2294 (GLONASS)

TLE line 1: 1 23398U 94076C 25188.87227094 -.00000033 00000-0 00000-0 0 9991

TLE line 2: 2 23398 64.6263 80.6641 0005546 41.9445 140.6947 2.13101767238345

Live tracking on map

Real-time ground track for satellite COSMOS 2294 (GLONASS).

In-orbit conjunctions

A list of the most updated potential collisions computed for object COSMOS 2294 (GLONASS).

Target Orbit TCA Probability of collision Miss distance Type
COSMOS 2309 (GLONASS) MEO 2025-07-06 12:35:46 TBA 4133.0 (m) PAYLOAD
COSMOS 2309 (GLONASS) MEO 2025-07-02 01:36:18 TBA 3574.0 (m) PAYLOAD
COSMOS 2288 (GLONASS) MEO 2025-06-25 08:57:23 TBA 4543.0 (m) PAYLOAD
COSMOS 2288 (GLONASS) MEO 2025-06-24 21:41:39 TBA 3395.0 (m) PAYLOAD
COSMOS 2288 (GLONASS) MEO 2025-06-24 10:25:55 TBA 2449.0 (m) PAYLOAD

Associated space launch

GLONASS navigation satellites

COSMOS 2294 (GLONASS) was lifted into orbit during the mission ‘Proton | Uragan 60 to 62’, on board a Proton space rocket.

The launch took place on Nov. 20, 1994, 12:39 a.m. from 200/39 (200L).

For more information about the launch, click the button.

Launch to space Proton | Uragan 60 to 62
Proton | Uragan 60 to 62

Agency: N/A

Status: Launch Successful

Launch date: Nov. 20, 1994, 12:39 a.m. UTC

Rocket: Proton

Launch pad: 200/39 (200L)

Location: Baikonur Cosmodrome, Republic of Kazakhstan

...

Latest news about this satellite

There are no fresh news available about this satellite. Check back as we update our databases every day.


Newsletter sign-up

Weekly statistics, charts and insights to help you stay on top of the space industry.